ORBCOMM FM 1

Satellite information

Favourite Embed

Satellite Type and Status

PAYLOADIN ORBIT

Key statistics

Satellite ORBCOMM FM 1 at a glance.

Uptime

11113

Days in orbit

Revolutions

≈ 14.9

Per day

Orbit

LEO

Low Earth Orbit

Inclination

70.0

Latest

Satellite identification and parameters

Extended collection of information and parameters for ORBCOMM FM 1.

Object identification

Identified? True

Debris? False

Object name: ORBCOMM FM 1

International designator: 1995-017A

Object number (NORAD): 23545

Object ID (CCSDS): 23545

Country: ORBITAL TELECOMMUNICATIONS SATELLITE (GLOBALSTAR) (ORB)

Current information (Y/N): Y

RCS size: MEDIUM

Orbital parameters

Period: 96.586 minutes

Inclination: 69.9609 deg

SMA: 6973.259 km

Apoapsis: 598.631 km

Periapsis: 591.616 km

RAAN: 236.8459 deg

Eccentricy: 0.00050298

Argument of periapsis: 234.4409 deg

Mean anomaly: 125.6278 deg

Mean motion: 14.90902041 rev/day

Mean motion (dot): 0.00009442 rev/day2

B* drag term: 0.00096305251 1/REarth

Two-line elements (TLE)

Creation date: Sept. 4, 2025, 10:13 a.m.

Reference frame: TEME

Reference center: EARTH

Epoch: Sept. 4, 2025, 6:13 a.m. UTC

TLE line 0: 0 ORBCOMM FM 1

TLE line 1: 1 23545U 95017A 25247.25921543 .00009442 00000-0 96305-3 0 9997

TLE line 2: 2 23545 69.9609 236.8459 0005030 234.4409 125.6278 14.90902041624295

Live tracking on map

Real-time ground track for satellite ORBCOMM FM 1.

In-orbit conjunctions

A list of the most updated potential collisions computed for object ORBCOMM FM 1.

Target Orbit TCA Probability of collision Miss distance Type
CZ-6A DEB SSO 2025-07-02 14:48:25 0.001381128 448.0 (m) DEBRIS
DELTA 1 DEB LEO 2025-02-16 01:05:39 0.0001013267 34.0 (m) DEBRIS
SL-14 R/B LEO 2024-11-03 12:14:27 0.0001560896 53.0 (m) ROCKET BODY

Associated space launch

ORBCOMM FM 1 was lifted into orbit during the mission ‘Pegasus Hybrid | Orbcomm F1 - F2 & OrbView-1’, on board a Pegasus Hybrid space rocket.

The launch took place on April 3, 1995, 1:48 p.m. from Vandenberg Space Force Base.

For more information about the launch, click the button.

Launch to space Pegasus Hybrid | Orbcomm F1 - F2 & OrbView-1
Pegasus Hybrid | Orbcomm F1 - F2 & OrbView-1

Agency: N/A

Status: Launch Successful

Launch date: April 3, 1995, 1:48 p.m. UTC

Rocket: Pegasus Hybrid

Launch pad: Vandenberg Space Force Base

Location: Air launch to orbit

...

Latest news about this satellite

There are no fresh news available about this satellite. Check back as we update our databases every day.


Newsletter sign-up

Weekly statistics, charts and insights to help you stay on top of the space industry.